N7QNM-13 Weather Reports


time (UTC)temp
F
wind
direction
speed
knots
gust
knots
rain 1hr
in
rain 24hr
in
rain mn
in
humidity
%
barometer
mb
20260509041623 62 156 0.0 2.6 0.00 0.00 0.00 44 1016.6
20260509040602 64 0.0 0.0 0.00 0.00 0.00 43 1016.4
20260509035623 65 226 0.0 2.6 0.00 0.00 0.00 41 1016.2
20260509034603 67 162 1.7 3.5 0.00 0.00 0.00 39 1016.0
20260509033603 68 273 0.9 3.5 0.00 0.00 0.00 38 1015.7
20260509032623 69 251 2.6 3.5 0.00 0.00 0.00 38 1015.5
20260509031604 70 269 4.3 6.1 0.00 0.00 0.00 37 1015.3
20260509030604 71 272 5.2 8.7 0.00 0.00 0.00 36 1015.1
20260509025604 72 267 7.0 10.4 0.00 0.00 0.00 36 1014.9
20260509024605 72 267 7.0 8.7 0.00 0.00 0.00 34 1014.6
20260509023604 73 280 9.6 13.9 0.00 0.00 0.00 34 1014.4
20260509022605 74 276 8.7 18.2 0.00 0.00 0.00 32 1014.3
20260509021604 74 278 9.6 16.5 0.00 0.00 0.00 31 1014.1
20260509020604 75 281 10.4 14.8 0.00 0.00 0.00 31 1014.0
20260509015604 75 291 11.3 18.2 0.00 0.00 0.00 30 1013.9
20260509014605 76 283 10.4 17.4 0.00 0.00 0.00 31 1013.8
20260509013605 76 284 10.4 16.5 0.00 0.00 0.00 30 1013.7
20260509012625 77 304 9.6 18.2 0.00 0.00 0.00 31 1013.7
20260509011605 77 291 8.7 16.5 0.00 0.00 0.00 30 1013.6
20260509010645 78 298 10.4 17.4 0.00 0.00 0.00 30 1013.5
20260509005605 78 311 5.2 11.3 0.00 0.00 0.00 30 1013.5
20260509004605 78 262 10.4 15.6 0.00 0.00 0.00 30 1013.4
20260509003606 78 305 7.0 14.8 0.00 0.00 0.00 28 1013.4
20260509002606 79 304 8.7 15.6 0.00 0.00 0.00 28 1013.3
20260509001606 79 275 7.8 13.9 0.00 0.00 0.00 28 1013.2
20260509000626 79 279 10.4 20.0 0.00 0.00 0.00 27 1013.1
20260508235606 79 263 7.0 11.3 0.00 0.00 0.00 28 1013.1
20260508234606 79 291 3.5 8.7 0.00 0.00 0.00 28 1013.0
20260508233606 79 261 7.8 12.2 0.00 0.00 0.00 28 1013.1
20260508232626 79 287 5.2 10.4 0.00 0.00 0.00 27 1013.2
20260508231626 79 299 7.0 13.0 0.00 0.00 0.00 27 1013.1
20260508230606 79 311 1.7 10.4 0.00 0.00 0.00 27 1013.2
20260508225707 78 299 7.0 13.0 0.00 0.00 0.00 27 1013.2
20260508224607 79 296 6.1 14.8 0.00 0.00 0.00 28 1013.2
20260508223607 78 289 9.6 15.6 0.00 0.00 0.00 28 1013.2
20260508222607 78 299 8.7 14.8 0.00 0.00 0.00 27 1013.2
20260508221607 78 262 8.7 13.9 0.00 0.00 0.00 28 1013.2
20260508220607 78 307 5.2 16.5 0.00 0.00 0.00 28 1013.2
20260508215627 78 292 7.8 13.9 0.00 0.00 0.00 28 1013.3
20260508214607 77 311 1.7 7.0 0.00 0.00 0.00 26 1013.3
20260508213607 78 299 7.8 14.8 0.00 0.00 0.00 28 1013.4
20260508212608 77 269 6.1 14.8 0.00 0.00 0.00 27 1013.3
20260508211608 76 285 8.7 12.2 0.00 0.00 0.00 28 1013.3
20260508210608 76 301 7.8 11.3 0.00 0.00 0.00 28 1013.3
20260508205628 76 306 4.3 9.6 0.00 0.00 0.00 30 1013.4
20260508204610 75 245 5.2 10.4 0.00 0.00 0.00 31 1013.4
20260508203628 74 296 7.0 13.9 0.00 0.00 0.00 32 1013.5
20260508202609 74 246 6.1 11.3 0.00 0.00 0.00 33 1013.5
20260508201608 74 283 3.5 10.4 0.00 0.00 0.00 34 1013.6
20260508200608 74 22 0.0 1.7 0.00 0.00 0.00 35 1013.6
20260508200108 73 56 2.6 7.0 0.00 0.00 0.00 34 1013.6
20260508195109 73 49 1.7 8.7 0.00 0.00 0.00 34 1013.7
20260508194108 73 26 0.9 4.3 0.00 0.00 0.00 35 1013.6
20260508193109 74 322 0.9 4.3 0.00 0.00 0.00 34 1013.5
20260508192109 73 300 1.7 4.3 0.00 0.00 0.00 33 1013.7
20260508191109 73 7 1.7 5.2 0.00 0.00 0.00 35 1013.7
20260508190149 73 24 0.9 5.2 0.00 0.00 0.00 35 1013.7
20260508185129 73 315 0.9 4.3 0.00 0.00 0.00 34 1013.7
20260508184110 72 55 0.0 2.6 0.00 0.00 0.00 34 1013.7
20260508183109 71 299 0.9 4.3 0.00 0.00 0.00 34 1013.7
20260508182109 72 288 3.5 7.0 0.00 0.00 0.00 35 1013.9
20260508181110 71 312 1.7 5.2 0.00 0.00 0.00 35 1013.9
20260508180110 71 307 3.5 10.4 0.00 0.00 0.00 36 1014.0
20260508175110 70 266 4.3 9.6 0.00 0.00 0.00 36 1014.1
20260508174110 70 273 3.5 7.8 0.00 0.00 0.00 38 1014.0
20260508173110 68 291 0.9 4.3 0.00 0.00 0.00 38 1014.1
20260508172110 68 286 3.5 7.8 0.00 0.00 0.00 40 1014.3
20260508171111 67 266 2.6 6.1 0.00 0.00 0.00 40 1014.2
20260508170130 65 298 0.0 2.6 0.00 0.00 0.00 49 1014.2
20260508165110 64 0.0 0.0 0.00 0.00 0.00 54 1014.3
20260508164111 64 0.0 0.0 0.00 0.00 0.00 56 1014.3
20260508163111 63 290 0.0 1.7 0.00 0.00 0.00 56 1014.3
20260508162152 62 304 0.0 0.9 0.00 0.00 0.00 58 1014.3
20260508161131 61 0.0 0.0 0.00 0.00 0.00 62 1014.1
20260508160111 60 109 0.0 2.6 0.00 0.00 0.00 63 1014.2
20260508155151 59 0.0 0.0 0.00 0.00 0.00 65 1014.2
20260508154111 57 62 0.0 3.5 0.00 0.00 0.00 68 1014.0
20260508153111 56 0.0 0.0 0.00 0.00 0.00 70 1014.0
20260508152131 54 65 0.0 3.5 0.00 0.00 0.00 74 1014.0
20260508151111 53 90 0.0 2.6 0.00 0.00 0.00 76 1013.9
20260508150112 52 76 1.7 4.3 0.00 0.00 0.00 77 1013.9
20260508145132 51 139 0.0 2.6 0.00 0.00 0.00 81 1013.9
20260508144112 51 119 0.0 1.7 0.00 0.00 0.00 82 1013.8
20260508143132 50 0.0 0.0 0.00 0.00 0.00 82 1013.9
20260508142112 49 83 0.9 2.6 0.00 0.00 0.00 82 1013.7
20260508141112 49 72 2.6 3.5 0.00 0.00 0.00 82 1013.6
20260508140233 48 114 0.0 2.6 0.00 0.00 0.00 83 1013.6
20260508135113 48 136 0.0 2.6 0.00 0.00 0.00 83 1013.5
20260508134113 47 76 0.0 2.6 0.00 0.00 0.00 84 1013.3
20260508133113 46 124 0.0 0.9 0.00 0.00 0.00 84 1013.3
20260508132113 46 0.0 0.0 0.00 0.00 0.00 84 1013.2
20260508131113 46 97 0.0 1.7 0.00 0.00 0.00 84 1013.0
20260508130114 45 0.0 0.0 0.00 0.00 0.00 84 1013.0
20260508125133 45 60 0.0 1.7 0.00 0.00 0.00 83 1012.9
20260508124114 45 59 0.0 1.7 0.00 0.00 0.00 83 1012.9
20260508123134 45 54 0.0 2.6 0.00 0.00 0.00 83 1012.9
20260508122114 44 161 0.0 0.9 0.00 0.00 0.00 83 1012.9
20260508121114 44 246 0.0 1.7 0.00 0.00 0.00 83 1013.0
20260508120113 44 269 0.0 0.9 0.00 0.00 0.00 83 1012.9
20260508115114 44 130 0.0 0.9 0.00 0.00 0.00 83 1012.9
20260508114114 44 0.0 0.0 0.00 0.00 0.00 83 1012.9
20260508113114 45 355 0.0 1.7 0.00 0.00 0.00 83 1012.8
20260508112114 44 191 0.0 0.9 0.00 0.00 0.00 83 1012.8
20260508111114 44 235 0.0 0.9 0.00 0.00 0.00 83 1012.7
20260508110115 45 47 0.9 3.5 0.00 0.00 0.00 83 1012.5
20260508105136 45 249 0.0 1.7 0.00 0.00 0.00 82 1012.4
20260508104114 45 310 0.0 1.7 0.00 0.00 0.00 82 1012.5
20260508103115 45 99 0.9 3.5 0.00 0.00 0.00 82 1012.4
20260508102135 46 146 0.0 0.9 0.00 0.00 0.00 80 1012.4
20260508101135 46 0.0 0.0 0.00 0.00 0.00 79 1012.4
20260508100115 46 175 0.0 1.7 0.00 0.00 0.00 77 1012.3
20260508095115 47 0.0 0.0 0.00 0.00 0.00 76 1012.3
20260508094115 47 133 0.0 0.0 0.00 0.00 0.00 75 1012.2
20260508093116 47 95 0.0 0.9 0.00 0.00 0.00 73 1012.2
20260508092115 48 65 0.9 2.6 0.00 0.00 0.00 73 1012.3
20260508091116 48 64 0.0 1.7 0.00 0.00 0.00 71 1012.3
20260508090116 49 127 0.0 1.7 0.00 0.00 0.00 70 1012.3
20260508085116 49 107 0.0 1.7 0.00 0.00 0.00 68 1012.3
20260508084116 50 115 0.0 2.6 0.00 0.00 0.00 67 1012.3
20260508083116 51 166 0.0 0.0 0.00 0.00 0.00 65 1012.3
20260508082116 52 209 0.0 1.7 0.00 0.00 0.00 62 1012.2
20260508081117 53 110 0.0 2.6 0.00 0.00 0.00 61 1012.2
20260508080117 53 151 0.9 3.5 0.00 0.00 0.00 57 1012.2
20260508075016 52 182 0.9 2.6 0.00 0.00 0.00 61 1012.2
20260508074017 52 226 0.9 2.6 0.00 0.00 0.00 63 1012.1
20260508073117 53 62 4.3 6.1 0.00 0.00 0.00 63 1012.1
20260508072117 53 116 1.7 4.3 0.00 0.00 0.00 62 1012.0
20260508071117 54 115 1.7 3.5 0.00 0.00 0.00 60 1012.0
20260508070117 55 220 0.0 0.9 0.00 0.00 0.00 57 1011.9
20260508065017 55 126 0.0 1.7 0.00 0.00 0.00 55 1011.9
20260508064017 56 152 0.0 0.9 0.00 0.00 0.00 55 1011.9
20260508063037 56 0.0 0.0 0.00 0.00 0.00 55 1011.9
20260508062117 57 111 0.9 4.3 0.00 0.00 0.00 54 1011.8
20260508061118 57 131 0.9 2.6 0.00 0.00 0.00 54 1011.8
20260508060018 59 108 0.0 1.7 0.00 0.00 0.00 53 1011.7
20260508055018 59 3 0.0 0.9 0.00 0.00 0.00 49 1011.6
20260508054018 59 190 0.0 1.7 0.00 0.00 0.00 49 1011.5
20260508053018 60 172 0.0 1.7 0.00 0.00 0.00 51 1011.5
20260508052018 59 131 0.9 2.6 0.00 0.00 0.00 51 1011.5
20260508051018 60 179 0.0 0.9 0.00 0.00 0.00 51 1011.4
20260508050039 61 97 0.0 0.9 0.00 0.00 0.00 50 1011.3
20260508045019 62 114 0.0 1.7 0.00 0.00 0.00 48 1011.3
20260508044019 64 251 1.7 3.5 0.00 0.00 0.00 48 1011.2
20260508043019 65 229 0.9 3.5 0.00 0.00 0.00 42 1011.1